Ord, NE

1:44 PM CDT on October 20, 2017 (GMT -0500)
Sharp

Weather History for KODX - February, 2012

Change the Weather History Date:

Friday, February 10, 2012

  Actual Average Record
Temperature  
Mean Temperature 15 °F 27 °F  
Max Temperature 28 °F 39 °F 70 °F (1999)
Min Temperature 2 °F 14 °F 1 °F (2001)
Degree Days  
Heating Degree Days 50 38  
Month to date heating degree days 397 389  
Since 1 July heating degree days 4115 4365  
Cooling Degree Days 0 0  
Month to date cooling degree days 0 0  
Year to date cooling degree days 0 0  
Moisture  
Dew Point 4 °F    
Average Humidity 60    
Maximum Humidity 75    
Minimum Humidity 45    
Precipitation  
Precipitation T in 0.02 in 0.74 in (2013)
Month to date precipitation 0.47 0.18  
Year to date precipitation 0.60 0.55  
Sea Level Pressure  
Sea Level Pressure 30.44 in    
Wind  
Wind Speed 17 mph (North)    
Max Wind Speed 26 mph    
Max Gust Speed 32 mph    
Visibility 10 miles    
Events Snow    
T = Trace of Precipitation, MM = Missing Value Source: NWS Daily Summary

Daily Weather History Graph

Daily Weather History Graph

Search for Another Location

Airport or City:

Trip Planner

Search our weather history database for the weather conditions in past years. The results will help you decide how hot, cold, wet, or windy it might be!

Date:

Astronomy

Feb. 10, 2012 Rise Set
Actual Time 7:38 AM CST 6:02 PM CST
Civil Twilight 7:09 AM CST 6:31 PM CST
Nautical Twilight 6:36 AM CST 7:04 PM CST
Astronomical Twilight 6:04 AM CST 7:36 PM CST
Moon 9:46 PM CST (2/10) 8:44 AM CST (2/10)
Length of Visible Light 11h 21m
Length of Day
10h 24m
Waning Gibbous, 90% of the Moon is Illuminated
Feb 10
Waning Gibbous
Feb 14
Last Quarter
Feb 21
New
Feb 29
First Quarter
Mar 8
Full

Hourly Weather History & Observations

Time (CST) Temp. Windchill Dew Point Humidity Pressure Visibility Wind Dir Wind Speed Gust Speed Precip Events Conditions
12:53 AM 26.1 °F 11.0 °F 18.0 °F 71% 30.22 in 10.0 mi North 24.2 mph 29.9 mph 0.00 in   Overcast
1:53 AM 25.0 °F 11.3 °F 18.0 °F 75% 30.22 in 10.0 mi NNW 18.4 mph - N/A   Overcast
2:53 AM 25.0 °F 12.6 °F 18.0 °F 75% 30.22 in 9.0 mi North 15.0 mph - 0.00 in   Overcast
3:53 AM 21.9 °F 8.7 °F 16.0 °F 78% 30.25 in 8.0 mi North 15.0 mph 25.3 mph 0.00 in Snow Light Snow
4:53 AM 19.0 °F 4.5 °F 12.9 °F 77% 30.28 in 9.0 mi North 16.1 mph - 0.00 in   Overcast
5:53 AM 15.1 °F 1.1 °F 6.1 °F 68% 30.32 in 10.0 mi North 12.7 mph - N/A   Scattered Clouds
6:28 AM 14.0 °F 0.5 °F 6.8 °F 73% 30.24 in 10.0 mi North 11.5 mph - N/A   Mostly Cloudy
6:53 AM 15.1 °F -1.1 °F 7.0 °F 70% 30.35 in 10.0 mi North 17.3 mph 24.2 mph N/A   Mostly Cloudy
7:12 AM 14.0 °F -2.5 °F 6.8 °F 73% 30.27 in 10.0 mi North 17.3 mph 23.0 mph N/A   Scattered Clouds
7:53 AM 12.0 °F -1.3 °F 5.0 °F 73% 30.38 in 10.0 mi North 10.4 mph - N/A   Clear
8:53 AM 14.0 °F -3.0 °F 3.9 °F 64% 30.40 in 10.0 mi NNW 18.4 mph 24.2 mph N/A   Clear
9:53 AM 15.1 °F 0.5 °F 5.0 °F 64% 30.43 in 10.0 mi North 13.8 mph - N/A   Clear
10:53 AM 17.1 °F 0.1 °F 3.9 °F 56% 30.44 in 10.0 mi North 20.7 mph 26.5 mph N/A   Clear
11:53 AM 18.0 °F 1.3 °F 3.9 °F 54% 30.46 in 10.0 mi North 20.7 mph 26.5 mph N/A   Clear
12:53 PM 19.0 °F 2.7 °F 3.9 °F 52% 30.45 in 10.0 mi North 20.7 mph 27.6 mph N/A   Clear
1:53 PM 19.9 °F 3.2 °F 3.0 °F 48% 30.45 in 10.0 mi NNW 23.0 mph 26.5 mph N/A   Clear
2:53 PM 19.0 °F 3.6 °F 3.0 °F 50% 30.46 in 10.0 mi North 18.4 mph 26.5 mph N/A   Clear
3:53 PM 19.0 °F 2.4 °F 1.9 °F 47% 30.48 in 10.0 mi North 21.9 mph 26.5 mph N/A   Clear
4:53 PM 16.0 °F -0.9 °F -0.0 °F 49% 30.51 in 10.0 mi NNW 19.6 mph 25.3 mph N/A   Clear
5:53 PM 12.9 °F -3.4 °F -0.9 °F 54% 30.54 in 10.0 mi North 16.1 mph - N/A   Clear
6:53 PM 10.0 °F -5.2 °F -0.9 °F 61% 30.58 in 10.0 mi North 12.7 mph - N/A   Clear
7:53 PM 8.1 °F -7.0 °F -2.0 °F 64% 30.63 in 10.0 mi NNE 11.5 mph - N/A   Clear
8:53 PM 5.0 °F -14.2 °F -5.1 °F 63% 30.66 in 10.0 mi North 17.3 mph - N/A   Clear
9:53 PM 3.9 °F -13.0 °F -6.0 °F 64% 30.69 in 10.0 mi North 12.7 mph - N/A   Clear
10:53 PM 1.9 °F -16.2 °F -6.0 °F 69% 30.69 in 10.0 mi North 13.8 mph - N/A   Clear
11:53 PM 1.9 °F -13.8 °F -8.0 °F 63% 30.72 in 10.0 mi North 10.4 mph 19.6 mph N/A   Clear